Location: Pic du Midi - T1M
(42.9366°N, 0.1426°E)
Time: 07:55:40
(UTC+00:00)

X-37B - Pass Details

Date: 05 October 2022
Orbit: 277 x 277 km, 45.0° (Epoch: 01 November)

Event Time Altitude Azimuth Distance (km) Brightness Sun altitude
Exits shadow 05:52:52 31° 230° (SW) 512 0.7 -13.3°
Maximum altitude 05:53:16 34° 206° (SSW) 480 0.8 -13.2°
Drops below altitude 10° 05:55:30 10° 138° (SE) 1,087 3.4 -12.8°
Sets 05:57:29 0° 128° (SE) 1,896 4.8 -12.4°
